N1LTP Weather Reports


time (UTC)temp
C
wind
direction
speed
KPH
gust
KPH
rain 1hr
cm
rain 24hr
cm
rain mn
cm
humidity
%
barometer
mb
20260509231549 12 144 0.0 1.6 0.00 1.42 1.42 95 1012.6
20260509230048 12 144 0.0 1.6 0.00 1.42 1.42 95 1012.5
20260509224547 12 200 0.0 1.6 0.00 1.42 1.42 94 1012.4
20260509223056 12 208 0.0 6.4 0.00 1.42 1.42 94 1012.3
20260509221550 12 241 0.0 3.2 0.00 1.42 1.42 94 1012.4
20260509220057 12 119 0.0 1.6 0.00 1.42 1.42 93 1012.0
20260509214546 12 132 0.0 4.8 0.00 1.42 1.42 93 1011.9
20260509213045 12 126 0.0 3.2 0.00 1.42 1.42 92 1012.0
20260509211545 13 187 0.0 8.0 0.00 1.42 1.42 90 1011.9
20260509210043 13 158 1.6 4.8 0.00 1.42 1.42 87 1011.6
20260509204556 14 65 1.6 6.4 0.00 1.45 1.42 81 1011.4
20260509203041 15 218 3.2 12.9 0.00 1.45 1.42 81 1011.4
20260509201542 15 192 3.2 9.7 0.00 1.45 1.42 80 1011.4
20260509200043 15 360 1.6 9.7 0.00 1.45 1.42 75 1011.4
20260509194543 15 161 0.0 8.0 0.00 1.63 1.42 75 1011.5
20260509193043 15 106 0.0 3.2 0.00 1.63 1.42 76 1011.4
20260509191538 15 130 3.2 8.0 0.03 1.63 1.42 76 1011.5
20260509190036 15 321 1.6 6.4 0.03 1.63 1.42 78 1011.5
20260509184537 15 126 1.6 4.8 0.03 1.98 1.42 79 1011.7
20260509183033 14 138 0.0 6.4 0.03 1.98 1.42 80 1011.9
20260509181534 13 133 1.6 6.4 0.00 1.96 1.40 84 1011.9
20260509180030 13 327 0.0 3.2 0.00 1.96 1.40 86 1012.0
20260509174530 13 327 0.0 4.8 0.00 1.98 1.40 84 1011.9
20260509173029 13 119 3.2 9.7 0.00 1.98 1.40 81 1012.9
20260509171530 13 142 1.6 6.4 0.00 1.98 1.40 77 1012.7
20260509170029 15 127 1.6 6.4 0.00 1.98 1.40 73 1012.7
20260509164526 15 131 1.6 6.4 0.00 1.98 1.40 72 1012.4
20260509163029 15 102 3.2 16.1 0.00 1.98 1.40 73 1012.6
20260509161525 15 109 3.2 12.9 0.00 1.98 1.40 71 1012.5
20260509160022 15 84 0.0 8.0 0.00 1.98 1.40 75 1012.7
20260509154519 15 129 1.6 4.8 0.00 2.01 1.40 76 1012.9
20260509153014 14 132 3.2 9.7 0.00 2.01 1.40 76 1013.0
20260509151510 13 129 0.0 6.4 0.00 2.01 1.40 82 1013.2
20260509150015 12 151 3.2 11.3 0.00 2.01 1.40 86 1013.3
20260509144509 11 115 0.0 4.8 0.00 2.51 1.40 90 1013.0
20260509143059 11 140 0.0 6.4 0.00 2.51 1.40 93 1013.4
20260509141556 10 28 0.0 8.0 0.00 2.51 1.40 95 1013.6
20260509140104 10 74 0.0 3.2 0.00 2.51 1.40 96 1014.0
20260509134551 8 32 0.0 1.6 0.00 2.59 1.40 96 1014.0
20260509133044 8 32 0.0 3.2 0.00 2.59 1.40 96 1014.3
20260509131552 7 28 0.0 1.6 0.00 2.59 1.40 96 1014.4
20260509130036 7 341 0.0 1.6 0.00 2.59 1.40 96 1014.5
20260509124536 6 341 0.0 0.0 0.00 2.59 1.40 95 1014.6
20260509123028 6 341 0.0 0.0 0.00 2.59 1.40 95 1014.5
20260509121533 5 341 0.0 0.0 0.00 2.59 1.40 94 1014.3
20260509120023 5 341 0.0 3.2 0.46 2.59 1.40 94 1014.5
20260509114520 5 341 0.0 0.0 0.71 2.59 1.40 93 1014.5
20260509113019 5 340 0.0 1.6 0.71 2.59 1.40 93 1014.9
20260509111519 5 340 0.0 0.0 0.71 2.59 1.40 93 1015.1
20260509110016 4 340 0.0 1.6 0.28 2.13 0.94 92 1015.3
20260509104514 4 340 0.0 0.0 0.00 1.85 0.66 91 1015.0
20260509103012 3 340 0.0 1.6 0.00 1.85 0.66 91 1014.8
20260509101510 3 340 0.0 0.0 0.00 1.85 0.66 91 1014.5
20260509100008 3 340 0.0 0.0 0.00 1.85 0.66 91 1014.1
20260509094503 2 340 0.0 0.0 0.00 1.85 0.66 92 1013.7
20260509093003 2 340 0.0 0.0 0.00 1.85 0.66 92 1013.6
20260509091503 2 340 0.0 0.0 0.00 1.85 0.66 92 1013.4
20260509090001 2 340 0.0 1.6 0.00 1.85 0.66 91 1013.7
20260509084604 1 340 0.0 0.0 0.00 1.85 0.66 90 1013.4
20260509083102 2 340 0.0 0.0 0.00 1.85 0.66 90 1013.4
20260509081600 2 340 0.0 0.0 0.13 1.85 0.66 90 1013.7
20260509074556 2 340 0.0 0.0 0.64 1.85 0.66 89 1013.8
20260509073056 2 340 0.0 0.0 0.51 1.73 0.53 90 1013.9
20260509071555 2 340 0.0 0.0 0.51 1.73 0.53 90 1013.7
20260509070053 2 340 0.0 0.0 0.33 1.55 0.36 89 1013.9
20260509064550 2 340 0.0 0.0 0.03 1.22 0.03 89 1013.9
20260509063056 2 340 0.0 0.0 0.03 1.22 0.03 89 1013.9
20260509061548 2 340 0.0 0.0 0.03 1.22 0.03 88 1013.8
20260509060050 3 340 0.0 0.0 0.03 1.22 0.03 88 1013.6
20260509054543 3 340 0.0 0.0 0.00 1.19 0.00 88 1013.7
20260509053107 3 340 0.0 0.0 0.00 1.19 0.00 87 1013.6
20260509051540 3 340 0.0 0.0 0.00 1.19 0.00 86 1013.6
20260509050038 3 340 0.0 0.0 0.00 1.19 0.00 84 1013.5
20260509044535 4 340 0.0 0.0 0.00 1.19 0.00 83 1013.5
20260509043039 4 340 0.0 0.0 0.00 1.19 0.00 83 1013.5
20260509041540 5 340 0.0 0.0 0.00 1.19 0.00 81 1013.4
20260509040029 5 340 0.0 3.2 0.00 1.19 0.00 80 1013.2
20260509034526 5 340 0.0 0.0 0.00 1.19 1.19 80 1013.2
20260509033026 5 340 0.0 0.0 0.00 1.19 1.19 79 1013.0
20260509031526 6 340 0.0 0.0 0.00 1.19 1.19 79 1013.0
20260509030024 6 340 0.0 0.0 0.00 1.19 1.19 78 1013.1
20260509024523 7 340 0.0 0.0 0.00 1.19 1.19 76 1013.0
20260509023022 7 340 0.0 0.0 0.00 1.19 1.19 73 1012.8
20260509021521 8 340 0.0 0.0 0.00 1.19 1.19 72 1012.7
20260509020023 8 340 0.0 0.0 0.00 1.19 1.19 67 1012.6
20260509014517 9 340 0.0 0.0 0.00 1.19 1.19 64 1012.4
20260509013014 10 340 0.0 0.0 0.00 1.19 1.19 62 1012.1
20260509011513 10 340 0.0 0.0 0.00 1.19 1.19 60 1011.8
20260509010027 11 340 0.0 4.8 0.00 1.19 1.19 58 1011.4
20260509004517 11 335 1.6 6.4 0.00 1.19 1.19 57 1011.2
20260509003005 11 326 0.0 3.2 0.03 1.19 1.19 57 1010.9
20260509001504 11 326 0.0 3.2 0.03 1.19 1.19 57 1010.6
20260508234558 12 321 1.6 6.4 0.03 1.19 1.19 53 1009.9
20260508233111 12 304 0.0 12.9 0.00 1.17 1.17 51 1009.7
20260508231559 12 304 1.6 14.5 0.00 1.17 1.17 50 1009.7